When you browse on this site, cookies collect data to enhance your experience and personalize the content and advertising you see.
Visit our Privacy Policy to learn more. By continuing to use the site, you agree to this use of cookies and data.

Hourly Weather Belmopan

Today, 9 August, Sunday

Time Temperature Precipitation Wind Pressure Humidity
00:00 +26°C° 0 mm 1 mps 754 mmHg 99%
01:00 +26°C° 0.2 mm 1 mps 753 mmHg 99%
02:00 +26°C° 0.2 mm 1 mps 753 mmHg 99%
03:00 +26°C° 0.2 mm 1 mps 752 mmHg 99%
04:00 +24°C° 0.1 mm 0 mps 753 mmHg 99%
05:00 +24°C° 0.1 mm 0 mps 753 mmHg 99%
06:00 +24°C° 0 mm 0 mps 753 mmHg 99%
07:00 +27°C° 0.6 mm 1 mps 754 mmHg 95%
08:00 +28°C° 0.6 mm 1 mps 754 mmHg 91%
09:00 +30°C° 0.6 mm 2 mps 754 mmHg 87%
10:00 +30°C° 0.7 mm 2 mps 754 mmHg 83%
11:00 +31°C° 0.7 mm 2 mps 754 mmHg 79%
12:00 +32°C° 0.7 mm 2 mps 753 mmHg 76%
13:00 +31°C° 0.9 mm 2 mps 753 mmHg 78%
14:00 +31°C° 0.9 mm 2 mps 752 mmHg 81%
15:00 +30°C° 0.9 mm 2 mps 752 mmHg 84%
16:00 +29°C° 0.5 mm 2 mps 752 mmHg 87%
17:00 +29°C° 0.5 mm 1 mps 752 mmHg 89%
18:00 +28°C° 0.5 mm 1 mps 753 mmHg 92%
19:00 +27°C° 0.3 mm 1 mps 753 mmHg 94%
20:00 +27°C° 0.3 mm 1 mps 754 mmHg 96%
21:00 +26°C° 0.3 mm 1 mps 754 mmHg 99%
22:00 +26°C° 0.1 mm 1 mps 754 mmHg 99%
23:00 +26°C° 0.1 mm 1 mps 754 mmHg 99%

Tomorrow, 10 August, Monday

Time Temperature Precipitation Wind Pressure Humidity
00:00 +26°C° 0.1 mm 1 mps 754 mmHg 99%
01:00 +26°C° 0 mm 1 mps 753 mmHg 99%
02:00 +24°C° 0 mm 0 mps 753 mmHg 99%
03:00 +23°C° 0 mm 0 mps 752 mmHg 99%
04:00 +24°C° 0.1 mm 0 mps 752 mmHg 99%
05:00 +24°C° 0.1 mm 0 mps 752 mmHg 99%
06:00 +24°C° 0.1 mm 0 mps 752 mmHg 99%
07:00 +27°C° 1 mm 1 mps 752 mmHg 97%
08:00 +28°C° 1 mm 1 mps 753 mmHg 95%
09:00 +29°C° 1 mm 2 mps 753 mmHg 93%
10:00 +29°C° 2.8 mm 2 mps 753 mmHg 94%
11:00 +29°C° 2.8 mm 2 mps 753 mmHg 94%
12:00 +29°C° 2.8 mm 2 mps 753 mmHg 95%
13:00 +29°C° 2.2 mm 2 mps 752 mmHg 95%
14:00 +28°C° 2.2 mm 2 mps 752 mmHg 96%
15:00 +28°C° 2.2 mm 2 mps 751 mmHg 96%
16:00 +28°C° 0.5 mm 2 mps 752 mmHg 96%
17:00 +27°C° 0.5 mm 1 mps 752 mmHg 96%
18:00 +27°C° 0.5 mm 1 mps 752 mmHg 96%
19:00 +26°C° 0.3 mm 1 mps 752 mmHg 97%
20:00 +26°C° 0.3 mm 1 mps 752 mmHg 98%
21:00 +25°C° 0.3 mm 1 mps 753 mmHg 98%
22:00 +23°C° 0.3 mm 0 mps 752 mmHg 99%
23:00 +23°C° 0.3 mm 0 mps 752 mmHg 99%

Day after tomorrow, 11 August, Tuesday

Time Temperature Precipitation Wind Pressure Humidity
00:00 +23°C° 0.3 mm 0 mps 752 mmHg 99%
01:00 +23°C° 0.1 mm 0 mps 752 mmHg 99%
02:00 +23°C° 0.1 mm 0 mps 751 mmHg 99%
03:00 +23°C° 0.1 mm 0 mps 751 mmHg 99%
04:00 +23°C° 0 mm 0 mps 751 mmHg 99%
05:00 +23°C° 0 mm 0 mps 751 mmHg 99%
06:00 +23°C° 0 mm 0 mps 751 mmHg 99%
07:00 +27°C° 0.1 mm 1 mps 752 mmHg 91%
08:00 +29°C° 0.1 mm 1 mps 752 mmHg 84%
09:00 +31°C° 0.1 mm 2 mps 752 mmHg 77%
10:00 +32°C° 0.1 mm 2 mps 752 mmHg 69%
11:00 +34°C° 0.1 mm 3 mps 752 mmHg 60%
12:00 +36°C° 0.1 mm 3 mps 752 mmHg 52%
13:00 +35°C° 0 mm 3 mps 752 mmHg 53%
14:00 +35°C° 0 mm 3 mps 751 mmHg 53%
15:00 +35°C° 0 mm 3 mps 750 mmHg 54%
16:00 +34°C° 0 mm 2 mps 750 mmHg 62%
17:00 +31°C° 0 mm 2 mps 751 mmHg 70%
18:00 +30°C° 0 mm 1 mps 751 mmHg 78%
19:00 +28°C° 0 mm 1 mps 751 mmHg 85%
20:00 +27°C° 0 mm 1 mps 751 mmHg 92%
21:00 +24°C° 0 mm 0 mps 752 mmHg 98%
22:00 +24°C° 0 mm 0 mps 752 mmHg 98%
23:00 +23°C° 0 mm 0 mps 752 mmHg 98%

12 August, Wednesday

Time Temperature Precipitation Wind Pressure Humidity
00:00 +23°C° 0 mm 0 mps 752 mmHg 99%
01:00 +23°C° 0 mm 0 mps 751 mmHg 99%
02:00 +23°C° 0 mm 0 mps 751 mmHg 99%
03:00 +23°C° 0 mm 0 mps 751 mmHg 99%
04:00 +23°C° 0 mm 0 mps 751 mmHg 99%
05:00 +23°C° 0 mm 0 mps 751 mmHg 98%
06:00 +23°C° 0 mm 0 mps 751 mmHg 98%
07:00 +25°C° 0.2 mm 0 mps 752 mmHg 91%
08:00 +29°C° 0.2 mm 1 mps 752 mmHg 84%
09:00 +31°C° 0.2 mm 1 mps 752 mmHg 77%
10:00 +31°C° 0.7 mm 1 mps 752 mmHg 77%
11:00 +31°C° 0.7 mm 2 mps 752 mmHg 77%
12:00 +31°C° 0.7 mm 2 mps 752 mmHg 77%
13:00 +31°C° 0.3 mm 2 mps 751 mmHg 72%
14:00 +32°C° 0.3 mm 2 mps 750 mmHg 67%
15:00 +34°C° 0.3 mm 2 mps 750 mmHg 61%
16:00 +31°C° 0 mm 2 mps 750 mmHg 67%
17:00 +30°C° 0 mm 1 mps 750 mmHg 73%
18:00 +29°C° 0 mm 1 mps 750 mmHg 79%
19:00 +28°C° 0 mm 1 mps 751 mmHg 85%
20:00 +27°C° 0 mm 1 mps 751 mmHg 91%
21:00 +23°C° 0 mm 0 mps 752 mmHg 97%
22:00 +23°C° 0 mm 0 mps 752 mmHg 97%
23:00 +23°C° 0 mm 0 mps 752 mmHg 98%

13 August, Thursday

Time Temperature Precipitation Wind Pressure Humidity
00:00 +23°C° 0 mm 0 mps 751 mmHg 98%
01:00 +23°C° 0 mm 0 mps 751 mmHg 98%
02:00 +23°C° 0 mm 0 mps 751 mmHg 98%
03:00 +22°C° 0 mm 0 mps 751 mmHg 99%
04:00 +22°C° 0 mm 0 mps 751 mmHg 99%
05:00 +22°C° 0 mm 0 mps 751 mmHg 99%
06:00 +22°C° 0 mm 0 mps 751 mmHg 99%
07:00 +25°C° 0.1 mm 0 mps 752 mmHg 89%
08:00 +27°C° 0.1 mm 0 mps 752 mmHg 80%
09:00 +31°C° 0.1 mm 1 mps 752 mmHg 71%
10:00 +31°C° 0.9 mm 1 mps 752 mmHg 75%
11:00 +30°C° 0.9 mm 1 mps 752 mmHg 80%
12:00 +30°C° 0.9 mm 2 mps 751 mmHg 84%
13:00 +31°C° 0.4 mm 2 mps 751 mmHg 77%
14:00 +32°C° 0.4 mm 2 mps 750 mmHg 70%
15:00 +34°C° 0.4 mm 2 mps 750 mmHg 63%
16:00 +31°C° 0 mm 2 mps 750 mmHg 69%
17:00 +30°C° 0 mm 2 mps 750 mmHg 76%
18:00 +29°C° 0 mm 1 mps 750 mmHg 82%
19:00 +27°C° 0 mm 1 mps 751 mmHg 87%
20:00 +26°C° 0 mm 1 mps 751 mmHg 92%
21:00 +25°C° 0 mm 1 mps 752 mmHg 97%
22:00 +23°C° 0 mm 0 mps 752 mmHg 97%
23:00 +23°C° 0 mm 0 mps 751 mmHg 97%

14 August, Friday

Time Temperature Precipitation Wind Pressure Humidity
00:00 +22°C° 0 mm 0 mps 751 mmHg 97%
01:00 +22°C° 0 mm 0 mps 751 mmHg 97%
02:00 +22°C° 0 mm 0 mps 750 mmHg 98%
03:00 +22°C° 0 mm 0 mps 750 mmHg 98%
04:00 +22°C° 0 mm 0 mps 750 mmHg 98%
05:00 +22°C° 0 mm 0 mps 751 mmHg 98%
06:00 +22°C° 0 mm 0 mps 751 mmHg 98%
07:00 +24°C° 0 mm 0 mps 751 mmHg 87%
08:00 +29°C° 0 mm 1 mps 752 mmHg 76%
09:00 +31°C° 0 mm 1 mps 752 mmHg 65%
10:00 +34°C° 0 mm 2 mps 752 mmHg 58%
11:00 +35°C° 0 mm 2 mps 751 mmHg 52%
12:00 +36°C° 0 mm 2 mps 751 mmHg 45%
13:00 +36°C° 0 mm 3 mps 751 mmHg 45%
14:00 +36°C° 0 mm 3 mps 750 mmHg 45%
15:00 +36°C° 0 mm 3 mps 749 mmHg 44%
16:00 +34°C° 0 mm 3 mps 750 mmHg 54%
17:00 +31°C° 0 mm 2 mps 750 mmHg 64%
18:00 +29°C° 0 mm 2 mps 750 mmHg 74%
19:00 +28°C° 0 mm 1 mps 751 mmHg 81%
20:00 +27°C° 0 mm 1 mps 751 mmHg 87%
21:00 +24°C° 0 mm 0 mps 752 mmHg 94%
22:00 +23°C° 0 mm 0 mps 751 mmHg 95%
23:00 +23°C° 0 mm 0 mps 751 mmHg 96%
Show more